TimeCDT,TemperatureF,Dew PointF,Humidity,Sea Level PressureIn,VisibilityMPH,Wind Direction,Wind SpeedMPH,Gust SpeedMPH,PrecipitationIn,Events,Conditions,WindDirDegrees,DateUTC
12:15 AM,85.5,65.5,51,29.92,10.0,ESE,9.2,-,N/A,,Clear,110,2013-06-27 05:15:00
12:35 AM,84.6,66.2,54,29.92,10.0,ESE,11.5,-,N/A,,Clear,110,2013-06-27 05:35:00
12:55 AM,84.0,66.6,56,29.92,10.0,ESE,10.4,-,N/A,,Clear,110,2013-06-27 05:55:00
1:15 AM,83.5,67.1,58,29.93,10.0,ESE,9.2,-,N/A,,Clear,110,2013-06-27 06:15:00
1:35 AM,83.3,67.1,58,29.92,10.0,ESE,10.4,-,N/A,,Clear,110,2013-06-27 06:35:00
1:55 AM,82.8,67.3,59,29.92,10.0,ESE,8.1,-,N/A,,Clear,110,2013-06-27 06:55:00
2:15 AM,82.4,67.1,60,29.92,10.0,ESE,8.1,-,N/A,,Clear,120,2013-06-27 07:15:00
2:35 AM,82.9,66.6,58,29.92,10.0,SE,9.2,-,N/A,,Clear,130,2013-06-27 07:35:00
2:55 AM,82.2,66.7,59,29.92,10.0,SE,6.9,-,N/A,,Clear,130,2013-06-27 07:55:00
3:15 AM,80.8,67.1,63,29.92,10.0,East,8.1,-,N/A,,Clear,100,2013-06-27 08:15:00
3:35 AM,79.7,67.3,66,29.93,10.0,East,9.2,-,N/A,,Clear,100,2013-06-27 08:35:00
3:55 AM,79.3,67.1,66,29.93,10.0,ESE,8.1,-,N/A,,Clear,110,2013-06-27 08:55:00
4:15 AM,78.8,67.1,67,29.94,10.0,East,8.1,-,N/A,,Clear,100,2013-06-27 09:15:00
4:35 AM,78.6,67.1,68,29.94,10.0,ESE,6.9,-,N/A,,Clear,120,2013-06-27 09:35:00
4:55 AM,77.9,66.7,68,29.94,10.0,ESE,6.9,-,N/A,,Clear,120,2013-06-27 09:55:00
5:15 AM,78.3,66.4,67,29.94,10.0,ESE,6.9,-,N/A,,Clear,120,2013-06-27 10:15:00
5:35 AM,78.3,66.6,67,29.94,10.0,ESE,8.1,-,N/A,,Clear,120,2013-06-27 10:35:00
5:55 AM,77.4,66.6,69,29.95,10.0,East,8.1,-,N/A,,Clear,100,2013-06-27 10:55:00
6:15 AM,76.8,66.7,71,29.96,10.0,ESE,8.1,-,N/A,,Clear,120,2013-06-27 11:15:00
6:35 AM,76.3,66.7,72,29.96,10.0,ESE,8.1,-,N/A,,Clear,120,2013-06-27 11:35:00
6:55 AM,76.6,66.4,70,29.97,10.0,ESE,5.8,-,N/A,,Clear,120,2013-06-27 11:55:00
7:15 AM,77.2,66.4,69,29.97,10.0,ESE,6.9,-,N/A,,Clear,120,2013-06-27 12:15:00
7:35 AM,78.3,66.6,67,29.97,10.0,SSE,6.9,-,N/A,,Clear,150,2013-06-27 12:35:00
7:55 AM,80.1,66.2,62,29.98,10.0,SSE,9.2,-,N/A,,Clear,150,2013-06-27 12:55:00
8:15 AM,81.9,65.3,57,29.99,10.0,SSE,8.1,-,N/A,,Clear,150,2013-06-27 13:15:00
8:35 AM,83.8,65.1,53,29.99,10.0,SSE,8.1,-,N/A,,Clear,160,2013-06-27 13:35:00
8:55 AM,86.2,64.2,48,29.99,10.0,South,10.4,-,N/A,,Clear,180,2013-06-27 13:55:00
9:15 AM,88.7,63.7,43,29.99,10.0,South,11.5,-,N/A,,Clear,190,2013-06-27 14:15:00
9:35 AM,90.7,63.7,41,29.99,10.0,SSW,11.5,-,N/A,,Clear,200,2013-06-27 14:35:00
9:55 AM,93.2,63.1,37,29.99,10.0,SSW,15.0,-,N/A,,Clear,210,2013-06-27 14:55:00
10:15 AM,94.3,62.6,35,29.99,10.0,SSW,17.3,23.0,N/A,,Clear,210,2013-06-27 15:15:00
10:35 AM,95.2,62.8,34,29.99,10.0,SSW,13.8,19.6,N/A,,Clear,210,2013-06-27 15:35:00
10:55 AM,95.9,62.1,32,29.98,10.0,SW,15.0,19.6,N/A,,Clear,230,2013-06-27 15:55:00
11:15 AM,97.0,61.9,31,29.99,10.0,SSW,11.5,19.6,N/A,,Clear,210,2013-06-27 16:15:00
11:35 AM,97.5,61.7,30,29.99,10.0,SSW,15.0,-,N/A,,Clear,210,2013-06-27 16:35:00
11:55 AM,98.6,61.7,29,29.98,10.0,SW,12.7,16.1,N/A,,Clear,220,2013-06-27 16:55:00
12:15 PM,99.1,60.6,28,29.98,10.0,South,9.2,-,N/A,,Clear,190,2013-06-27 17:15:00
12:35 PM,100.6,59.2,25,29.98,10.0,South,4.6,-,N/A,,Clear,180,2013-06-27 17:35:00
12:55 PM,101.1,58.5,24,29.98,10.0,SW,5.8,-,N/A,,Clear,220,2013-06-27 17:55:00
1:15 PM,102.0,59.9,25,29.97,10.0,South,8.1,-,N/A,,Clear,190,2013-06-27 18:15:00
1:35 PM,102.9,59.7,24,29.97,10.0,South,11.5,16.1,N/A,,Clear,180,2013-06-27 18:35:00
1:55 PM,103.6,56.5,21,29.97,10.0,SSE,11.5,17.3,N/A,,Clear,160,2013-06-27 18:55:00
2:15 PM,103.1,54.3,20,29.97,10.0,SSW,8.1,-,N/A,,Clear,200,2013-06-27 19:15:00
2:35 PM,104.9,54.7,19,29.97,10.0,SSW,8.1,17.3,N/A,,Clear,210,2013-06-27 19:35:00
2:55 PM,104.9,55.2,19,29.96,10.0,South,6.9,19.6,N/A,,Clear,170,2013-06-27 19:55:00
3:15 PM,105.6,54.3,18,29.95,10.0,South,11.5,17.3,N/A,,Clear,170,2013-06-27 20:15:00
3:35 PM,107.1,53.6,17,29.95,10.0,South,9.2,18.4,N/A,,Clear,190,2013-06-27 20:35:00
3:55 PM,106.2,52.2,17,29.94,10.0,South,8.1,-,N/A,,Clear,190,2013-06-27 20:55:00
4:15 PM,107.4,52.0,16,29.94,10.0,SSW,12.7,-,N/A,,Clear,210,2013-06-27 21:15:00
4:35 PM,106.5,53.2,17,29.93,10.0,SSW,8.1,-,N/A,,Clear,210,2013-06-27 21:35:00
4:55 PM,107.8,50.5,15,29.92,10.0,South,10.4,17.3,N/A,,Clear,190,2013-06-27 21:55:00
5:15 PM,107.6,49.6,14,29.92,10.0,South,11.5,24.2,N/A,,Clear,180,2013-06-27 22:15:00
5:35 PM,107.2,49.1,14,29.90,10.0,South,10.4,17.3,N/A,,Clear,170,2013-06-27 22:35:00
5:55 PM,107.6,48.2,14,29.89,10.0,SW,11.5,-,N/A,,Clear,230,2013-06-27 22:55:00
6:15 PM,107.6,50.5,15,29.88,10.0,South,10.4,17.3,N/A,,Clear,180,2013-06-27 23:15:00
6:35 PM,107.1,49.6,15,29.87,10.0,South,13.8,-,N/A,,Clear,190,2013-06-27 23:35:00
6:55 PM,106.9,49.5,15,29.86,10.0,South,12.7,18.4,N/A,,Clear,190,2013-06-27 23:55:00
7:15 PM,106.2,49.8,15,29.86,10.0,South,16.1,-,N/A,,Clear,180,2013-06-28 00:15:00
7:35 PM,105.6,51.6,17,29.88,10.0,South,12.7,-,N/A,,Clear,190,2013-06-28 00:35:00
7:55 PM,104.9,52.2,17,29.89,10.0,South,10.4,-,N/A,,Clear,180,2013-06-28 00:55:00
8:15 PM,103.8,52.5,18,29.90,10.0,South,9.2,-,N/A,,Clear,190,2013-06-28 01:15:00
8:35 PM,102.6,52.7,19,29.90,10.0,South,8.1,-,N/A,,Clear,180,2013-06-28 01:35:00
8:55 PM,100.8,52.3,20,29.92,10.0,South,8.1,-,N/A,,Clear,180,2013-06-28 01:55:00
9:15 PM,98.1,52.9,22,29.92,10.0,South,8.1,-,N/A,,Clear,170,2013-06-28 02:15:00
9:35 PM,94.3,54.9,26,29.94,10.0,SE,6.9,-,N/A,,Clear,130,2013-06-28 02:35:00
9:55 PM,93.4,54.7,27,29.95,10.0,East,4.6,-,N/A,,Clear,90,2013-06-28 02:55:00
10:15 PM,91.6,55.8,30,29.98,10.0,NE,8.1,-,N/A,,Clear,40,2013-06-28 03:15:00
10:35 PM,94.6,52.2,24,30.04,7.0,NNE,31.1,38.0,N/A,,Mostly Cloudy,20,2013-06-28 03:35:00
10:55 PM,89.2,58.1,35,30.08,5.0,NE,35.7,46.0,N/A,,Haze,40,2013-06-28 03:55:00
11:15 PM,85.6,59.9,42,30.09,10.0,NE,36.8,43.7,N/A,,Overcast,40,2013-06-28 04:15:00
11:35 PM,85.1,59.9,42,30.09,10.0,ENE,24.2,33.4,N/A,,Mostly Cloudy,60,2013-06-28 04:35:00
11:55 PM,84.6,59.9,43,30.08,10.0,ENE,21.9,29.9,N/A,,Scattered Clouds,60,2013-06-28 04:55:00